Weather History for CWCH - February, 2014

Change the Weather History Date:

Sunday, February 2, 2014

  Actual Average Record
Temperature  
Mean Temperature -14 °F -  
Max Temperature 7 °F 20 °F 35 °F (1999)
Min Temperature -32 °F 3 °F -36 °F (2013)
Degree Days  
Heating Degree Days 78    
Moisture  
Dew Point -16 °F    
Average Humidity 71    
Maximum Humidity 77    
Minimum Humidity 56    
Precipitation  
Precipitation 0.08 in - - ()
Sea Level Pressure  
Sea Level Pressure 30.19 in    
Wind  
Wind Speed 2 mph ()    
Max Wind Speed 10 mph    
Max Gust Speed -    
Averages and records for this station are not official NWS values.
T = Trace of Precipitation, MM = Missing Value Source: Averaged Metar Reports

Daily Weather History Graph

Daily Weather History Graph

Search for Another Location

Airport or City:

Trip Planner

Search our weather history database for the weather conditions in past years. The results will help you decide how hot, cold, wet, or windy it might be!

Date:

Astronomy

Feb. 02, 2014 Rise Set
Actual Time 7:34 AM CST 5:06 PM CST
Civil Twilight 7:01 AM CST 5:40 PM CST
Nautical Twilight 6:23 AM CST 6:17 PM CST
Astronomical Twilight 5:46 AM CST 6:54 PM CST
Moon 8:41 AM CST (2/2) 9:13 PM CST (2/2)
Length of Visible Light 10h 38m
Length of Day
9h 31m
Waxing Crescent, 11% of the Moon is Illuminated
Feb 2
Waxing Crescent
Feb 6
First Quarter
Feb 14
Full
Feb 22
Last Quarter
Mar 1
New

Hourly Weather History & Observations

Time (CST) Temp. Windchill Dew Point Humidity Pressure Visibility Wind Dir Wind Speed Gust Speed Precip Events Conditions
12:00 AM -21 °F - -26 °F 65% 30.19 in - Calm Calm - -  
12:00 AM -20.7 °F - -26.0 °F 77% 30.19 in - Calm Calm - N/A   Unknown
1:00 AM -23.8 °F - -29.6 °F 74% 30.19 in - Calm Calm - N/A   Unknown
2:00 AM -25.6 °F - -31.4 °F 74% 30.19 in - Calm Calm - N/A   Unknown
3:00 AM -27.2 °F - -33.2 °F 73% 30.20 in - Calm Calm - N/A   Unknown
4:00 AM -28.1 °F - -34.2 °F 73% 30.21 in - Calm Calm - N/A   Unknown
5:00 AM -28.8 °F - -35.0 °F 72% 30.22 in - Calm Calm - N/A   Unknown
6:00 AM -30 °F - -36 °F 56% 30.22 in - Calm Calm - -  
6:00 AM -30.1 °F - -36.2 °F 72% 30.22 in - Calm Calm - N/A   Unknown
7:00 AM -31.4 °F - -37.8 °F 71% 30.24 in - Calm Calm - N/A   Unknown
8:00 AM -30.6 °F - -36.9 °F 72% 30.25 in - Calm Calm - N/A   Unknown
9:00 AM -20.4 °F - -25.6 °F 77% 30.24 in - Calm Calm - 0.08 in   Unknown
10:00 AM - - - N/A% 30.23 in - West 3.5 mph - N/A   Unknown
11:00 AM -3.8 °F -18.8 °F -9.4 °F 77% 30.22 in - SW 8.1 mph - N/A   Unknown
12:00 PM 0 °F - -7 °F 59% 30.20 in - SW 6.9 mph - -  
12:00 PM 0.5 °F -9.3 °F -7.2 °F 70% 30.20 in - SW 4.6 mph - N/A   Unknown
1:00 PM 3.6 °F -11.8 °F -6.7 °F 62% 30.17 in - West 10.4 mph - N/A   Unknown
2:00 PM 4.1 °F -10.2 °F -5.4 °F 65% 30.16 in - SW 9.2 mph - N/A   Unknown
3:00 PM 5.5 °F -6.3 °F -4.0 °F 65% 30.16 in - SW 6.9 mph - N/A   Unknown
4:00 PM 5.4 °F -6.5 °F -2.9 °F 69% 30.17 in - WSW 6.9 mph - N/A   Unknown
5:00 PM 5.2 °F -6.7 °F -2.7 °F 70% 30.17 in - WSW 6.9 mph - N/A   Unknown
6:00 PM 4 °F - -3 °F 63% 30.17 in - SW 3.5 mph - -  
6:00 PM 4.5 °F -4.7 °F -2.6 °F 73% 30.17 in - SW 4.6 mph - N/A   Unknown
7:00 PM 4.6 °F -6.0 °F -1.7 °F 75% 30.17 in - SSW 5.8 mph - N/A   Unknown
8:00 PM 4.8 °F - -1.1 °F 76% 30.15 in - SSW 1.2 mph - N/A   Unknown
9:00 PM 5.7 °F -1.3 °F -0.0 °F 77% 30.13 in - SSW 3.5 mph - N/A   Unknown
10:00 PM 5.9 °F - -0.0 °F 77% 30.12 in - WSW 2.3 mph - 0.01 in   Unknown
11:00 PM 7.5 °F 0.8 °F 1.4 °F 76% 30.11 in - WSW 3.5 mph - N/A   Unknown